www.pogodaiklimat.ru

Погода и климат >> Архив погоды >> Иран >> Керман


ПОГОДА в Кермане

  • Прогноз погоды в Кермане
  • Монитор погоды в Кермане

АРХИВ ПОГОДЫ в Кермане

Время (UTC), дата Ветер
(напр.,м/с)
 
Видим.   Явления Облачность Т
(С)
Тd
(С)
f
(%)
Тe
(С)
Тes
(С)
Комфортность P
(гПа)
Po
(гПа)
Тmin
(С)
Tmax
(С)
R
(мм)
R24
(мм)
S
(см)
15 11.02 В 3 10 км {дождь} 9/9 900 м
[Cb calv Ac As]
+9.3 +4.0 69 +7 +7 1009.8 820.5 +15.4
18 11.02 Ю 5 10 км {дождь} 9/9 900 м
[Cb calv Ac As]
+10.3 +0.7 51 +8 +8 1008.4 820.5 0.2
21 11.02 Ю 3 10 км 9/9 900 м
[Cb calv Ac As]
+9.6 +0.2 52 +8 +8 1006.3 818.7
00 12.02 ЮЗ 4 10 км слаб. дождь 9/9 900 м
[Cb calv Ac As]
+8.4 +2.5 66 +6 +6 1004.7 817.2 0.1
03 12.02 СЗ 3 3000 м дождь 10/9 900 м
[Cb calv As op]
+4.1 +2.9 92 0 0 1010.2 819.4 +3.8
06 12.02 Ю 2 1500 м слаб. дождь со снегом 10/6 900 м
[Cb calv As op]
+1.2 +0.2 93 -2 -2 1012.0 820.2 10
09 12.02 В 2 6000 м дымка {дождь} 9/8 600 м
[Cb calv Ac As]
+4.2 +2.4 88 +1 +3 1008.3 818.0
12 12.02 З 11 10 км {дождь} 9/8 1050 м
[Cb calv Ac As]
+6.4 -1.2 58 +1 +1 1009.2 818.8 0.6
15 12.02 З 4 10 км 8/6 1050 м
[Cb calv Ac As]
+2.7 -0.5 79 -2 -2 1016.5 822.3 +7.7 666
18 12.02 ЮЗ 4 10 км 5/3 1200 м
[Sc diur, vesp Ac trans]
+1.0 -0.7 88 -4 -4 1020.7 824.3
21 12.02 штиль 0 10 км 8/4 1200 м
[Sc diur, vesp Ac As]
+0.8 -1.1 87 -0 -0 1020.7 825.2
00 13.02 З 3 5000 м в посл. час снег 9/4 1200 м
[Sc diur, vesp As op]
+0.5 -0.7 92 -4 -4 1021.5 826.4 0.3
03 13.02 ЮЗ 3 7000 м дымка 6/3 1200 м
[Sc diur, vesp Ac trans]
-0.1 -1.5 90 -5 -5 1025.1 828.0 -0.1 666
06 13.02 штиль 0 15 км 5/5 1050 м
[Cu Sc]
+5.6 -1.6 60 +5 +10 1026.0 830.0
09 13.02 З 2 15 км 5/5 1050 м
[Cu Sc]
+6.8 -2.1 53 +5 +11 1024.9 829.4
12 13.02 ЮЗ 2 15 км 5/5 1050 м
[Cu Sc]
+9.6 -5.1 35 +9 +10 1022.6 828.2
15 13.02 ЮВ 2 10 км 1/1 1350 м
[Sc diur, vesp]
+5.8 -5.2 45 +4 +4 1024.6 828.5 +11.3
18 13.02 В 3 10 км ясно +1.6 -3.2 70 -2 -2 1024.6 829.0
21 13.02 В 2 10 км ясно +0.1 -3.7 76 -3 -3 1023.8 828.2
00 14.02 Ю 3 10 км ясно -2.0 -4.3 84 -7 -7 1022.7 827.6
03 14.02 штиль 0 10 км ясно -3.5 -6.2 82 -5 -4 1026.1 828.5 -3.5
06 14.02 штиль 0 15 км ясно +6.6 -6.4 39 +6 +17 опасность
простуды
1024.0 828.7
09 14.02 штиль 0 15 км ясно +12.4 -13.4 15 +13 +28 опасность
простуды
1019.9 826.6
12 14.02 штиль 0 30 км 1/0
[Ci fib]
+16.7 -23.2 5 +17 +20 1017.1 824.9
15 14.02 СЗ 3 10 км 1/0
[Ci fib]
+9.8 -9.1 25 +8 +8 1021.4 826.0 +17.4 666
18 14.02 ЮВ 2 10 км 1/0
[Ci fib]
+4.6 -6.5 44 +3 +3 1021.2 827.4
21 14.02 В 2 10 км 3/0
[Ci fib]
+1.2 -4.1 68 -2 -2 1019.9 827.1
00 15.02 штиль 0 10 км 3/0
[Ci fib]
-0.8 -5.4 71 -2 -2 1018.0 826.2
03 15.02 В 2 10 км 4/0
[Ci sp]
-2.0 -4.6 82 -6 -6 1022.4 827.3 -2.4
06 15.02 В 3 10 км 8/3 1500 м
[Sc diur, vesp Ac trans Cs]
+8.1 -5.8 37 +6 +9 1022.1 828.6
09 15.02 Ю 2 10 км 8/3 1200 м
[Sc diur, vesp Ac trans Cs]
+17.3 -4.8 22 +18 +23 1016.8 826.1
12 15.02 ЮЗ 3 10 км 9/3 1200 м
[Sc diur, vesp Ac trans Cs]
+17.3 -3.4 24 +17 +18 1015.3 824.4
15 15.02 З 5 10 км 8/3 1200 м
[Sc diur, vesp Ac trans Cs]
+12.8 +0.7 44 +11 +11 1018.6 825.3 +18.2 666
18 15.02 З 5 10 км 9/5 1050 м
[Cb calv As op]
+11.0 +2.9 57 +9 +9 1017.8 827.3
21 15.02 ЮВ 2 10 км 9/4 1200 м
[Sc diur, vesp As op]
+9.6 +4.2 69 +8 +8 1012.3 825.1
00 16.02 Ю 3 10 км 6/3 1200 м
[Sc diur, vesp Ac As]
+8.7 +3.8 71 +6 +6 1012.0 824.6
03 16.02 ЮВ 3 10 км 9/4 1200 м
[Sc diur, vesp Ac As]
+7.1 +3.9 80 +4 +4 1013.1 823.7 +6.7 666
06 16.02 Ю 4 10 км 9/5 600 м
[Cb calv Ac As]
+13.3 +3.5 51 +12 +13 1012.2 824.3
09 16.02 ЮЗ 8 10 км 9/5 1050 м
[Cb calv Ac As]
+14.8 +2.1 42 +13 +13 1009.9 822.4
12 16.02 З 8 10 км в посл. час дождь 9/5 1050 м
[Cb calv As op]
+13.1 +3.0 50 +11 +11 1009.8 821.6 0.0
15 16.02 З 7 20 км 9/5 1050 м
[Cb calv Ac As]
+12.2 +2.6 52 +10 +10 1011.6 822.3 +15.1
18 16.02 ЮЗ 6 20 км ясно +10.0 +2.6 60 +7 +7 1011.4 823.3
06 17.02 С 5 10 км 9/6 1050 м
[Cb calv Ac trans]
+6.2 +1.3 71 +2 +3 1014.2 823.5
09 17.02 З 8 10 км 6/4 1200 м
[Sc diur, vesp Ac trans]
+12.6 -2.1 36 +10 +11 1010.2 821.3
12 17.02 З 9 10 км 4/4 1200 м
[Sc diur, vesp]
+12.6 -10.6 19 +10 +10 1008.8 819.5
15 17.02 З 7 10 км 3/3 1200 м
[Sc diur, vesp]
+10.2 -14.1 17 +7 +7 1009.9 819.0 +14.1
18 17.02 З 9 10 км ясно +8.1 -23.0 9 +4 +4 1010.8 819.7
21 17.02 З 8 10 км ясно +6.6 -15.3 19 +2 +2 1008.6 819.4
00 18.02 СВ 2 10 км ясно +2.4 -15.5 25 0 0 1010.6 820.1
03 18.02 З 2 10 км ясно +0.4 -15.2 30 -2 -2 1014.1 821.3 +0.1
06 18.02 ЮЗ 3 15 км ясно +7.8 -16.3 16 +6 +13 1013.6 822.4
09 18.02 З 2 15 км 1/0
[Ci fib]
+9.7 -17.7 13 +9 +21 опасность
простуды
1010.3 819.9 666

 

Местоположение метеостанции Керман (Иран): широта 30.25 долгота 56.97 высота над уровнем моря 1754 м.

В архиве по умолчанию представлена погода в Кермане за последнюю неделю. Архивные данные за месяц целиком и за предыдущие месяцы, начиная с января 2011 года, Вы можете получить, выбрав интересующий диапазон дат из раскрывающегося списка и нажав кнопку "Ввод!".


*Определитесь, кто Вы:
робот инопланетянин человек

Внимание! Время в таблицах - всемирное. Для получения местного времени необходимо прибавить поправку, которая равна 3.5 ч.

Смотрите также архив погоды в соседних городах и на ближайших метеорологических станциях:

Погода в Бафте (Иран) (120 км)
Погода в Сирджане (Иран) (149 км)
Погода в Баме (Иран) (188 км)
Погода в Кехнудже (Иран) (263 км)
Погода в Йезде (Иран) (315 км)
Погода в Нехбандане (Иран) (325 км)
Погода в Бендер-Аббасе (Иран) (342 км)
Погода в Фесе (Иран) (349 км)
Погода в Бирдженде (Иран) (360 км)
Погода в Табасе (Иран) (373 км)

Пояснения к столбцам:

Ветер - указаны скорость ветра в м/с - средняя за 10 мин, порывы в срок и между сроками (в фигурных скобках) и направление, откуда дует ветер: С - северный, СВ - северо-восточный, В - восточный, ЮВ - юго-восточный, Ю - южный, ЮЗ - юго-западный, З - западный, СЗ - северо-западный.
Видимость - горизонтальная дальность видимости в метрах или километрах. При видимости от 1 до 10 км при отсутствии осадков обычно наблюдается дымка, при ухудшении видимости до 1 км и менее - туман. В сухую погоду видимость может ухудшаться дымом, пылью или мглою.
Явления - указаны атмосферные явления, наблюдавшиеся в срок или в последний час перед сроком; фигурными скобками обозначены явления, наблюдавшиеся между сроками (за 1-3 часа до срока); квадратными скобками обозначены град или гололедные отложения с указанием их диаметра в мм.
Облачность - указаны через наклонную черту общая и нижняя облачность в баллах и высота нижней границы облаков в метрах; квадратными скобками обозначены формы облаков: Ci - перистые, Cs - перисто-слоистые, Cc - перисто-кучевые, Ac - высококучевые, As - высокослоистые, Sc - слоисто-кучевые, Ns - слоисто-дождевые, Cu - кучевые, Cb - кучево-дождевые. Подробнее классификацию облаков см. в Атласе облаков (PDF).
T - Температура воздуха - температура, измеренная на высоте 2 м над землей.
Td - Температура точки росы - температура, при понижении до которой содержащийся в воздухе водяной пар достигнет насыщения.
f - Относительная влажность воздуха - влажноcть воздуха, измеренная на высоте 2 м над землей.
Te - Эффективная температура - температура, которую ощущает одетый по сезону человек в тени. Характеристика душности погоды. При расчете учитывается влияние влажности воздуха и скорости ветра на теплоощущения человека.
Tes - Эффективная температура на солнце - температура, которую ощущает человек, с поправкой на солнечный нагрев. Характеристика знойности погоды. Зависит от высоты солнца над горизонтом, облачности и скорости ветра. Ночью, в пасмурную погоду, а также при ветре 12 м/с и более поправка равна нулю.
P - Атмосферное давление - приведенное к уровню моря атмосферное давление.
Po - Атмосферное давление - измеренное на уровне метеостанции атмосферное давление.
Tmin - Минимальная температура - минимум температуры воздуха на высоте 2 м над землей.
Tmax - Максимальная температура - максимум температуры воздуха на высоте 2 м над землей.
R - Количество осадков - Количество выпавших осадков за период времени, мм. При наведении курсора мыши на число - период времени, за который выпало указанное количество осадков.
R24 - Количество осадков - Количество выпавших осадков за 24 часа, мм.
S - Снежный покров - Высота снежного покрова, см. При наведении курсора мыши на число - состояние снежного покрова и степень покрытия местности в баллах.